Location: Glass Lake
(42.6301°N, 73.5309°W)
Time: 09:58:07
(UTC+00:00)

BlueWalker 3 - Pass Details

Date: 06 October 2024
Orbit: 470 x 481 km, 53.2° (Epoch: 11 November)

Event Time Altitude Azimuth Distance (km) Brightness Sun altitude
Exits shadow 09:15:20 55° 207° (SSW) 569 1.9 -19.5°
Maximum altitude 09:16:01 75° 142° (SE) 490 1.8 -19.4°
Drops below altitude 10° 09:19:41 10° 56° (NE) 1,632 5.5 -18.7°
Sets 09:21:51 0° 55° (NE) 2,513 6.7 -18.4°
